RH
82 81 80 79 80 81 82 85 85 85 87 90 90 91 92 87 89 93 87 89 95 68 38 31 25 29 30 43 70 56 57 56 78 86 92 78 91 64 56 36 60 69 84 95 88 100 90 21 25 50 49 41 33 32
80 79 79 80 82 82 85 87 86 88 91 89 91 91 90 87 92 93 96 84 86 87 58 57 51 44 36 25 46 58 45 51 58 63 79 88 99 95 75 76 32 60 53 70 58 66 39 25 30 27 30 37 35 36
82 83 84 84 88 87 88 88 87 88 91 91 93 91 90 91 94 93 94 89 74 70 62 47 48 48 45 50 53 50 48 40 48 52 84 94 99 90 98 80 56 36 33 59 56 24 23 25 22 24 24 31 29 31
88 87 86 88 91 91 93 90 91 95 92 92 93 92 92 93 93 94 95 94 76 64 99 74 46 49 46 44 46 49 48 56 58 58 93 100 100 54 93 66 77 45 36 37 39 31 26 21 32 33 34 36 40 43
88 87 87 88 91 91 95 94 96 96 96 95 91 92 92 92 92 95 94 86 63 44 85 78 56 49 44 46 45 45 51 57 61 84 100 96 75 83 86 76 76 36 37 69 77 42 46 41 43 45 47 46 42 43
91 92 91 91 93 93 96 94 92 92 96 96 95 93 92 94 96 93 96 59 66 48 79 92 61 55 46 47 46 48 52 53 52 75 93 63 50 70 98 80 32 41 41 43 45 46 47 47 44 44 48 48 48 50
98 98 98 98 99 98 98 98 97 96 96 92 92 95 95 94 82 92 75 84 88 62 81 96 89 62 46 49 51 52 49 49 50 66 90 77 65 61 99 82 46 45 44 48 46 50 55 47 52 51 60 62 68 66
97 97 97 98 98 98 98 97 97 94 94 95 95 95 94 94 97 90 74 82 87 64 87 92 100 90 58 88 88 60 73 66 70 73 80 90 76 92 90 52 47 48 47 50 47 46 48 48 53 63 66 68 72 72
92 92 94 94 96 97 98 98 98 96 93 93 90 90 84 76 85 79 93 91 77 75 98 98 97 100 62 81 85 83 65 98 70 100 89 77 93 91 61 55 54 55 56 53 47 48 52 61 65 68 68 66 68 67
89 89 85 91 94 92 94 93 93 92 90 88 73 65 91 98 95 91 66 74 82 93 90 100 88 99 74 99 99 95 97 98 97 95 70 97 87 56 55 54 53 52 51 52 63 67 66 68 72 72 69 70 80 81
88 89 86 82 84 91 92 90 87 85 81 63 83 96 91 92 64 73 93 92 93 100 83 85 93 97 80 97 100 99 100 100 100 90 92 91 89 66 57 63 57 53 52 55 58 63 65 70 72 78 84 78 79 78
92 90 88 86 82 84 84 88 92 72 72 78 79 80 84 82 86 96 100 99 97 97 98 98 95 84 95 74 95 96 100 100 98 82 99 88 83 67 73 74 64 58 58 60 60 65 66 70 67 75 79 88 96 97
90 90 88 88 87 87 82 85 86 85 86 63 78 98 87 98 100 100 100 100 99 100 100 98 100 99 93 78 98 93 100 100 81 99 84 87 78 79 79 70 62 58 58 58 53 54 61 79 89 91 97 96 97 88
85 86 87 89 88 89 87 83 82 69 69 93 100 100 100 100 100 100 100 100 100 100 100 100 100 100 100 100 100 100 100 91 100 100 92 92 86 92 77 68 64 60 73 67 66 82 96 98 97 96 96 94 91 88
78 80 79 85 84 83 86 84 78 67 81 93 93 100 100 100 100 100 100 100 100 98 100 100 100 94 100 100 100 100 100 100 88 97 98 96 97 87 76 69 67 73 95 81 82 96 98 94 93 92 89 86 89 93
74 67 73 88 83 79 80 78 84 84 96 99 99 100 100 100 100 100 100 100 98 100 100 100 100 100 100 100 100 100 98 96 100 100 99 98 98 96 91 79 74 72 80 82 88 91 92 90 92 83 82 88 91 89
66 66 90 88 83 72 76 80 90 92 99 100 100 100 100 100 100 100 100 100 98 100 100 100 100 100 99 100 99 100 100 100 100 100 99 98 98 89 80 84 86 84 81 84 87 86 87 87 87 79 65 56 61 74
62 60 86 86 71 59 61 73 88 79 99 99 100 100 100 100 100 100 100 98 100 100 100 100 99 100 100 100 100 100 100 100 100 99 98 97 86 74 74 75 80 85 86 84 82 81 82 82 64 59 54 51 55 58
68 72 82 80 66 64 75 79 72 96 100 100 100 100 100 100 94 99 100 94 83 86 93 95 99 98 99 99 99 100 100 100 98 97 88 85 85 86 83 85 86 84 82 78 74 66 59 58 57 56 56 57 67 65
73 74 79 73 62 74 80 80 67 82 94 98 98 94 87 89 98 100 100 93 85 83 90 93 97 97 97 97 98 98 99 97 96 98 97 90 85 84 83 82 78 70 67 64 64 68 60 59 53 58 67 66 76 78
57 60 70 60 63 67 77 72 73 74 78 85 86 87 86 95 100 100 100 83 89 94 94 98 98 99 97 93 97 98 98 98 98 99 91 96 90 86 91 97 96 86 86 84 76 71 73 68 63 63 80 86 86 83
56 72 75 75 78 86 76 78 67 64 71 78 72 70 88 99 99 98 84 87 85 93 95 93 94 88 85 86 85 91 93 95 94 95 97 96 94 93 94 94 90 93 86 78 73 81 77 67 73 74 81 86 80 78
67 68 82 92 94 94 87 64 88 71 80 76 75 73 82 85 88 73 84 84 91 95 95 90 86 83 86 85 81 83 88 88 91 92 93 92 92 95 94 93 93 92 77 66 63 71 78 74 76 83 81 81 84 85
69 94 96 94 90 93 95 82 61 64 76 74 73 78 84 88 77 76 85 84 91 84 83 85 90 91 81 81 83 87 90 85 87 92 92 88 88 90 90 88 76 74 73 68 74 78 77 85 79 76 84 83 84 85
87 94 96 84 93 84 81 79 79 70 75 75 84 86 85 88 84 83 88 90 89 92 92 90 82 87 90 91 87 87 88 82 86 86 90 87 88 75 71 69 71 70 72 83 83 83 83 84 84 83 80 82 82 81
86 88 81 80 81 82 78 78 80 80 76 81 83 80 87 85 80 91 85 93 90 93 94 94 96 85 81 77 80 82 82 73 65 75 66 63 68 78 76 75 76 85 75 82 83 82 80 81 82 81 82 78 79 86
83 84 80 75 79 79 84 80 80 81 84 85 86 86 82 83 88 88 85 85 88 93 88 88 83 83 82 80 78 77 72 70 73 65 62 63 66 68 78 84 84 82 75 76 80 83 84 84 85 84 85 85 86 88
79 86 88 86 81 82 77 78 82 88 89 82 83 87 89 92 91 88 88 86 87 82 83 82 79 78 82 86 87 85 81 77 78 73 72 71 69 75 75 75 78 75 77 82 80 83 82 83 86 86 88 90 89 87
83 88 89 92 77 79 90 92 89 86 78 84 92 90 89 83 89 91 83 83 86 92 90 88 89 87 86 81 82 83 82 84 78 76 73 79 82 90 77 76 76 77 79 81 79 81 78 84 83 86 83 83 85 87
83 91 79 76 84 88 94 92 94 90 83 86 78 73 76 86 90 86 86 86 88 92 92 92 92 89 91 92 84 86 85 83 85 85 86 86 85 82 82 81 82 82 83 83 83 78 79 81 80 83 88 86 84 87
80 85 80 74 83 92 91 89 93 91 89 91 89 90 88 89 90 85 85 92 86 89 91 89 86 85 82 84 85 85 90 85 82 76 78 81 80 82 84 83 83 85 82 83 83 83 85 84 82 83 84 84 83 84
82 86 83 77 89 91 82 85 85 92 92 92 90 88 90 92 88 87 88 90 86 87 88 85 86 86 82 81 82 82 89 79 78 82 77 84 83 86 86 84 86 87 86 83 84 83 85 85 84 82 85 83 86 84
77 74 74 72 72 74 82 81 74 86 83 85 85 86 87 88 89 90 83 84 86 88 88 89 88 85 79 77 75 77 68 70 74 83 89 90 90 90 88 85 87 87 86 87 86 85 83 82 85 84 84 85 84 87
Wind_Speed
25 24 23 22 21 21 19 17 18 21 24 24 23 23 23 23 19 16 11 12 5 5 10 11 12 14 8 9 7 10 6 3 2 2 4 3 2 3 2 5 6 6 6 3 2 2 7 5 4 3 5 3 7 7
22 21 21 19 17 17 18 19 20 23 23 23 22 23 25 20 20 18 9 9 10 9 5 10 13 11 5 6 7 10 6 11 6 4 1 4 2 3 3 2 3 2 4 2 8 4 4 5 4 4 1 2 4 4
19 17 16 15 16 16 18 19 19 20 24 24 24 25 21 20 18 19 12 8 10 5 5 5 5 8 11 8 5 4 3 8 6 3 3 3 4 4 4 4 3 3 4 1 2 4 6 8 3 4 2 3 6 8
13 12 12 13 11 11 11 15 15 20 26 25 22 21 19 18 20 22 12 11 9 6 6 4 2 4 4 3 3 4 4 6 7 5 3 4 4 4 3 2 3 1 8 7 6 8 7 2 11 10 9 7 8 11
11 14 14 13 8 10 14 19 21 20 19 18 21 21 21 20 19 13 9 9 10 0 4 5 6 3 1 3 6 3 5 7 4 3 3 2 2 4 2 1 1 6 4 3 3 8 4 8 11 8 10 11 10 9
23 27 25 24 21 23 22 20 19 20 21 21 20 22 21 20 21 5 6 4 6 4 5 3 2 2 5 8 8 8 6 5 4 3 2 3 2 3 3 3 6 10 9 6 3 6 4 11 13 15 13 12 13 14
17 16 18 16 14 20 23 22 21 20 21 25 24 21 20 20 10 3 3 4 11 5 4 4 4 0 5 9 5 5 2 2 3 3 2 3 3 3 4 3 10 7 5 7 6 4 9 9 9 12 15 14 15 15
22 19 18 19 18 16 19 24 25 25 23 22 21 19 18 15 12 3 3 5 6 5 4 3 0 5 4 3 3 3 2 3 6 3 1 3 3 1 2 8 8 6 4 7 7 11 12 12 13 13 13 11 13 12
23 24 22 21 22 21 21 23 25 26 26 26 25 24 10 6 2 2 6 8 5 6 4 0 6 4 4 4 2 2 1 3 2 2 0 4 2 3 6 8 7 5 2 8 9 10 11 12 12 12 11 11 12 10
27 27 27 24 20 22 24 26 28 30 30 30 18 4 4 2 3 1 1 4 6 3 4 3 4 4 2 2 2 2 2 3 2 1 2 2 3 7 5 6 7 6 7 10 10 10 11 10 11 11 11 10 10 9
28 27 27 28 27 22 16 16 24 30 24 5 4 4 3 5 2 3 3 1 3 3 1 2 2 4 4 3 4 2 2 2 3 3 5 4 3 7 7 9 6 7 9 12 14 13 14 12 10 10 8 9 8 8
28 28 27 23 27 23 23 17 9 4 3 6 11 6 2 3 4 6 2 3 1 2 2 1 2 4 2 1 4 2 3 0 3 5 2 4 4 11 10 8 8 10 13 15 14 13 12 12 10 9 8 7 6 7
25 25 25 27 26 22 22 15 12 13 5 5 7 6 4 4 5 4 6 4 4 1 1 2 2 2 2 3 3 3 4 3 5 3 3 2 10 8 9 8 11 12 12 15 15 14 13 12 10 8 8 6 3 9
22 20 27 26 21 20 20 14 11 6 7 7 5 6 4 3 2 1 2 2 1 1 3 1 3 3 1 4 1 4 2 2 3 3 3 5 10 8 6 7 11 12 11 13 12 11 10 10 9 7 7 6 7 7
14 21 18 25 15 12 11 18 18 9 7 7 5 5 3 2 1 1 1 0 3 1 3 1 4 3 3 4 3 4 2 3 4 1 2 5 9 9 8 8 11 9 7 9 9 9 9 8 8 8 6 6 5 4
6 9 16 22 18 16 13 13 9 6 6 5 6 3 1 2 2 2 3 2 3 2 2 3 3 4 5 3 1 2 2 1 3 2 3 7 9 5 7 8 8 7 8 10 9 8 7 6 6 7 6 4 5 5
10 7 18 13 12 10 16 8 6 8 5 4 4 3 2 4 4 3 3 3 4 2 4 3 5 3 1 2 3 4 3 2 3 4 4 8 6 8 9 8 6 9 10 10 9 7 7 6 4 3 5 6 4 5
7 10 16 12 7 7 5 6 5 6 7 5 4 4 3 3 2 3 3 4 3 3 2 3 1 2 4 3 3 2 3 2 3 4 5 3 5 6 7 9 11 11 10 8 8 7 5 4 4 5 6 6 4 6
8 13 19 14 7 5 5 6 5 6 5 2 2 2 2 2 4 4 4 3 3 1 5 1 5 5 4 4 5 3 3 2 3 4 6 7 8 10 11 11 10 9 8 7 6 6 6 8 6 5 5 5 4 5
3 18 20 15 9 5 6 5 4 5 4 3 2 4 3 3 3 3 5 5 3 4 7 6 5 3 3 4 4 4 4 2 5 5 5 5 6 8 8 6 5 7 7 8 7 4 5 6 6 5 5 5 5 5
8 9 11 8 6 9 6 4 5 3 4 3 1 1 4 3 4 5 5 6 7 6 4 4 4 5 5 5 5 4 6 7 3 0 7 6 5 5 5 5 5 5 6 5 6 6 6 5 5 5 4 4 4 4
6 11 4 8 6 6 6 8 3 2 3 3 3 4 3 3 3 5 3 6 5 5 4 4 6 5 7 9 8 9 8 9 12 10 11 9 7 7 6 6 7 7 7 6 6 5 5 5 4 5 4 4 5 4
5 6 6 7 7 7 4 4 4 6 4 3 2 3 4 3 4 4 5 4 4 4 5 4 6 8 7 7 9 11 10 9 8 8 8 8 8 8 7 8 7 5 6 6 5 4 4 3 4 4 4 5 6 5
6 7 7 6 7 5 2 5 3 3 4 3 3 3 3 3 5 4 5 4 5 6 7 9 5 4 7 9 8 9 8 7 8 8 7 7 7 7 6 6 6 6 5 4 5 4 4 4 5 5 5 6 6 5
8 8 5 7 4 4 4 4 4 4 4 3 3 4 3 3 2 3 4 3 6 6 7 6 6 7 6 7 6 7 9 7 7 8 7 5 5 5 6 5 6 6 5 5 6 6 5 4 5 6 6 6 7 7
9 9 6 7 5 4 4 3 4 4 3 3 4 2 1 1 3 5 4 5 6 5 6 8 6 6 7 8 6 6 7 5 5 7 7 7 7 5 4 4 3 6 7 6 6 6 7 6 6 7 7 8 7 6
7 7 4 2 2 1 3 3 1 1 4 5 3 3 2 1 5 4 4 5 4 5 6 6 7 7 6 6 6 6 6 7 7 6 5 6 7 7 7 6 6 5 6 6 6 7 7 7 7 7 8 7 7 6
5 6 6 5 4 4 3 2 3 5 4 4 4 3 5 7 5 4 4 4 4 4 5 6 7 7 7 7 6 5 4 4 4 4 5 5 5 6 5 5 3 1 3 4 4 5 5 7 7 8 9 8 7 6
5 4 3 4 4 4 5 5 3 3 5 4 5 4 4 4 5 4 4 3 3 3 4 4 4 4 5 5 6 6 7 7 7 6 6 4 2 4 6 5 5 5 5 6 7 6 7 5 6 7 8 6 6 6
5 4 2 3 3 4 4 6 4 4 4 3 3 5 4 4 5 6 6 6 6 5 5 5 5 6 6 5 5 6 6 7 7 6 5 5 6 5 5 5 5 5 5 6 7 8 8 6 7 7 6 5 5 5
3 3 2 3 4 3 3 3 1 3 3 4 6 7 6 5 4 6 8 6 6 7 5 6 7 7 7 7 7 6 4 6 4 5 4 4 5 6 6 5 5 5 5 6 6 7 8 7 6 8 8 8 7 6
4 4 4 4 4 3 3 3 2 3 3 3 3 3 4 4 4 4 7 7 7 6 8 7 6 6 6 5 5 4 1 4 5 5 7 6 7 8 8 6 6 7 6 6 7 7 8 9 7 7 8 9 7 6
1 1 2 2 1 2 3 4 0 3 4 3 3 3 4 5 5 3 3 6 6 6 6 5 5 4 3 3 5 4 4 5 6 5 5 4 2 4 5 6 7 8 8 8 8 8 9 10 8 7 7 7 6 6
Wind_Direction
163 166 169 171 177 181 182 183 184 184 172 164 168 174 190 205 216 208 235 255 262 263 155 180 177 184 189 163 141 141 157 163 157 139 155 129 110 202 141 167 163 168 158 187 112 147 267 136 120 131 62 0 9 354
153 158 162 165 170 182 191 190 188 178 173 177 172 184 193 201 203 198 244 235 241 251 66 57 73 37 45 236 141 172 177 159 171 166 72 70 58 29 41 201 135 189 188 186 176 204 146 191 29 32 19 331 330 325
148 153 157 167 174 169 174 177 178 177 176 179 179 189 182 186 188 189 226 264 257 95 82 89 87 55 47 34 20 176 219 178 154 56 128 108 142 170 140 212 193 205 102 193 47 227 203 206 218 303 68 349 2 353
128 140 156 159 160 163 187 183 188 174 173 180 183 181 186 181 193 191 212 263 304 76 110 108 122 80 8 13 65 17 359 50 100 101 101 129 130 226 178 271 131 9 149 203 215 255 283 68 53 47 34 6 20 20
197 191 214 202 203 187 225 188 167 161 158 167 178 180 183 183 186 193 233 269 297 342 116 111 97 32 266 190 170 170 143 128 124 113 104 140 98 101 40 8 214 189 222 171 211 69 11 35 58 38 59 52 41 38
199 211 223 229 205 199 187 176 170 172 169 168 173 178 178 170 164 144 238 201 307 60 102 116 92 57 161 174 174 181 173 192 177 103 123 83 52 123 144 180 117 73 69 35 30 26 39 78 68 68 70 63 59 59
88 104 122 140 153 152 156 157 160 166 162 165 169 166 161 158 161 238 323 343 323 326 90 113 113 14 105 96 94 109 192 120 130 104 102 140 120 116 148 184 111 89 75 68 34 322 100 51 96 89 85 82 74 71
62 74 90 104 118 137 149 155 157 159 155 151 149 142 145 128 114 196 4 328 316 76 55 115 158 131 231 120 110 314 138 119 19 80 54 84 64 5 193 110 104 79 127 91 73 71 87 94 89 86 90 97 93 91
53 55 65 79 91 101 120 131 136 140 143 137 132 126 122 175 196 75 261 293 46 61 89 219 163 152 120 58 54 95 305 96 88 92 81 102 172 173 92 124 102 79 81 121 99 90 90 95 96 99 100 95 94 92
43 49 57 61 72 93 106 120 129 133 136 133 139 121 117 108 158 350 176 33 30 6 55 299 349 126 38 138 95 110 332 120 96 120 172 195 102 100 98 95 101 72 109 121 126 128 118 109 102 106 106 78 65 66
41 40 45 52 56 60 68 101 121 130 140 140 81 71 98 127 202 43 54 99 96 350 14 245 190 135 347 113 125 359 110 336 141 145 171 165 182 155 137 95 96 90 83 77 88 92 108 122 123 101 87 73 58 55
37 40 47 44 54 50 59 54 134 76 36 84 103 107 120 36 67 82 28 26 264 168 232 186 34 80 44 221 94 198 104 253 144 131 142 187 110 129 115 126 122 105 103 102 103 104 106 100 94 79 74 69 66 83
43 44 43 41 46 35 53 51 60 109 166 75 60 61 34 341 52 162 161 206 170 330 272 202 98 91 103 64 84 114 132 141 121 115 197 54 128 135 149 143 131 128 124 112 103 92 89 80 65 79 82 65 70 77
46 42 44 40 31 28 44 33 39 74 58 60 64 76 28 66 65 356 345 20 29 300 326 100 68 75 87 69 32 103 34 165 152 199 191 149 153 143 150 147 124 104 88 91 99 100 95 96 89 78 75 75 80 70
40 44 42 21 25 49 44 43 43 54 52 62 42 71 89 158 36 320 271 35 339 303 272 156 61 70 48 92 49 121 129 179 214 96 74 127 133 141 144 129 109 107 105 108 109 109 114 111 106 98 86 86 76 66
20 49 16 355 3 19 23 52 43 54 52 53 44 86 355 94 37 32 12 33 343 309 303 35 81 70 48 36 77 51 190 126 73 64 112 124 122 119 114 117 137 138 106 109 108 109 107 117 115 113 108 96 99 71
47 41 342 347 347 14 30 61 50 55 56 49 39 10 35 72 45 28 357 336 300 31 45 2 51 58 181 78 77 19 34 37 113 102 116 130 151 138 126 102 102 109 109 103 108 112 117 119 125 112 80 54 57 103
42 15 1 357 347 54 41 40 69 65 62 27 55 10 28 25 359 20 338 341 26 57 38 64 109 58 39 48 65 64 65 53 70 92 110 140 145 125 132 126 96 93 96 113 123 123 135 175 115 74 53 31 22 38
38 17 3 5 19 74 63 41 51 81 55 41 32 359 27 56 58 3 332 339 58 62 137 137 46 33 44 35 5 35 70 75 96 77 73 55 74 93 96 98 102 117 127 130 128 98 88 71 67 55 38 29 14 19
99 26 359 2 38 78 68 36 44 69 64 67 22 29 49 33 350 347 351 353 357 62 43 46 37 32 19 20 356 352 356 92 121 115 94 76 76 88 100 115 109 108 99 94 70 71 114 95 63 48 35 25 15 352
29 353 346 21 49 56 62 31 59 82 114 78 282 62 61 24 22 10 17 28 45 26 68 39 63 72 48 37 23 18 34 42 14 176 136 118 88 85 84 87 101 91 88 84 94 81 60 54 37 14 8 22 11 309
3 331 46 26 63 54 57 5 45 42 61 59 35 52 66 38 31 15 3 52 62 27 27 36 28 40 50 36 29 34 50 53 39 44 58 84 97 79 62 67 70 66 66 63 66 61 62 40 32 352 342 5 315 336
346 24 47 31 69 48 35 353 57 12 55 40 358 58 43 47 359 320 82 66 72 6 38 58 61 54 68 68 56 46 42 63 68 66 68 71 75 69 61 44 35 73 79 57 50 55 63 8 42 335 340 350 325 344
44 50 37 41 40 69 51 32 17 56 50 30 35 70 40 21 333 57 67 63 38 14 30 24 24 121 88 61 48 32 35 51 65 62 68 80 82 76 76 77 67 52 38 48 49 21 28 22 351 345 4 333 327 339
65 20 16 49 23 55 58 47 21 53 60 39 29 65 40 317 58 60 69 80 52 25 9 30 43 46 73 82 70 56 40 50 66 67 46 82 112 118 106 99 86 61 29 27 21 4 360 351 352 357 337 320 331 332
69 28 33 21 33 38 33 60 46 45 43 59 53 48 312 317 67 65 66 33 55 30 17 5 19 75 58 37 52 43 22 10 93 81 57 39 32 39 50 48 63 80 26 16 358 345 342 355 343 329 320 324 323 328
56 48 56 22 3 105 96 75 34 43 44 32 46 353 297 159 82 80 101 26 45 42 32 24 33 48 61 67 63 54 47 42 54 76 79 69 59 49 45 37 27 21 333 1 355 355 336 327 328 327 319 315 337 353
53 33 35 16 46 2 64 38 33 35 51 354 297 42 24 22 59 51 44 54 66 79 71 60 53 50 51 44 43 42 61 101 116 124 114 100 94 87 61 36 75 302 318 5 337 306 325 320 327 317 323 336 332 329
51 6 339 32 39 50 32 21 63 67 359 348 349 54 78 58 18 23 23 1 354 53 68 75 91 101 96 82 55 40 34 14 19 29 19 20 55 63 24 6 357 356 351 334 328 327 323 310 303 304 300 303 295 298
37 341 9 42 39 51 58 6 45 78 40 40 100 118 94 87 41 23 31 32 40 55 53 44 41 42 26 48 79 90 64 48 33 22 5 2 352 347 331 344 357 337 338 331 322 325 316 335 327 305 306 299 319 359
353 321 39 33 79 66 18 338 138 113 92 60 37 62 104 124 104 52 19 3 46 22 50 77 58 39 44 35 22 10 63 62 45 43 12 317 319 316 334 343 326 325 315 306 322 320 315 313 314 316 314 327 325 327
31 28 354 358 67 91 32 21 15 7 120 135 110 127 164 154 88 69 6 2 47 53 38 38 47 52 32 15 13 56 184 322 343 13 344 339 327 332 330 339 316 305 313 321 313 307 307 313 309 310 308 320 345 346
101 59 43 16 350 51 53 321 125 114 63 66 65 46 45 38 67 92 91 43 36 30 26 21 15 10 28 358 2 327 314 354 354 299 286 283 281 302 302 305 324 329 330 319 312 308 305 306 310 322 326 308 312 344